Tiempo cada hora Monachium

Hoy, 20 Octubre, Martes

Tiempo Temperatura Precipitaciones Viento Presión Humedad
00:00 +4°C° 0 mm 2 mps 719 mmHg 90%
01:00 +4°C° 0 mm 2 mps 719 mmHg 88%
02:00 +4°C° 0 mm 2 mps 718 mmHg 85%
03:00 +4°C° 0 mm 2 mps 718 mmHg 81%
04:00 +5°C° 0 mm 1 mps 717 mmHg 77%
05:00 +5°C° 0 mm 1 mps 717 mmHg 74%
06:00 +5°C° 0 mm 1 mps 717 mmHg 71%
07:00 +4°C° 0 mm 1 mps 717 mmHg 67%
08:00 +7°C° 0 mm 1 mps 717 mmHg 62%
09:00 +9°C° 0 mm 1 mps 717 mmHg 58%
10:00 +12°C° 0 mm 1 mps 717 mmHg 53%
11:00 +13°C° 0 mm 1 mps 717 mmHg 52%
12:00 +14°C° 0 mm 1 mps 717 mmHg 51%
13:00 +15°C° 0 mm 1 mps 717 mmHg 47%
14:00 +14°C° 0 mm 1 mps 716 mmHg 53%
15:00 +14°C° 0 mm 1 mps 716 mmHg 59%
16:00 +13°C° 0 mm 1 mps 715 mmHg 66%
17:00 +12°C° 0 mm 1 mps 715 mmHg 69%
18:00 +10°C° 0 mm 1 mps 716 mmHg 72%
19:00 +9°C° 0 mm 1 mps 716 mmHg 76%
20:00 +9°C° 0 mm 1 mps 716 mmHg 75%
21:00 +8°C° 0 mm 1 mps 716 mmHg 74%
22:00 +8°C° 0 mm 1 mps 716 mmHg 74%
23:00 +8°C° 0 mm 1 mps 716 mmHg 71%

Mañana, 21 Octubre, Miércoles

Tiempo Temperatura Precipitaciones Viento Presión Humedad
00:00 +8°C° 0 mm 1 mps 716 mmHg 68%
01:00 +7°C° 0 mm 2 mps 716 mmHg 65%
02:00 +7°C° 0 mm 2 mps 715 mmHg 64%
03:00 +6°C° 0 mm 2 mps 715 mmHg 63%
04:00 +6°C° 0 mm 2 mps 714 mmHg 62%
05:00 +6°C° 0 mm 2 mps 714 mmHg 62%
06:00 +7°C° 0 mm 2 mps 714 mmHg 62%
07:00 +7°C° 0 mm 2 mps 714 mmHg 63%
08:00 +9°C° 0 mm 2 mps 714 mmHg 60%
09:00 +13°C° 0 mm 1 mps 714 mmHg 58%
10:00 +15°C° 0 mm 1 mps 715 mmHg 55%
11:00 +16°C° 0 mm 1 mps 715 mmHg 54%
12:00 +19°C° 0 mm 1 mps 715 mmHg 53%
13:00 +20°C° 0 mm 1 mps 715 mmHg 52%
14:00 +19°C° 0 mm 1 mps 715 mmHg 58%
15:00 +18°C° 0 mm 1 mps 715 mmHg 63%
16:00 +16°C° 0 mm 1 mps 714 mmHg 69%
17:00 +15°C° 0 mm 1 mps 715 mmHg 73%
18:00 +13°C° 0 mm 1 mps 715 mmHg 78%
19:00 +12°C° 0 mm 2 mps 716 mmHg 82%
20:00 +12°C° 0 mm 1 mps 716 mmHg 81%
21:00 +12°C° 0 mm 1 mps 717 mmHg 80%
22:00 +11°C° 0 mm 1 mps 717 mmHg 79%
23:00 +11°C° 0 mm 1 mps 717 mmHg 79%

Pasado mañana, 22 Octubre, Jueves

Tiempo Temperatura Precipitaciones Viento Presión Humedad
00:00 +10°C° 0 mm 1 mps 718 mmHg 79%
01:00 +10°C° 0 mm 1 mps 718 mmHg 79%
02:00 +10°C° 0 mm 1 mps 718 mmHg 79%
03:00 +9°C° 0 mm 1 mps 717 mmHg 79%
04:00 +9°C° 0 mm 1 mps 717 mmHg 80%
05:00 +9°C° 0 mm 1 mps 717 mmHg 79%
06:00 +9°C° 0 mm 1 mps 717 mmHg 77%
07:00 +9°C° 0 mm 1 mps 717 mmHg 76%
08:00 +11°C° 0 mm 1 mps 717 mmHg 71%
09:00 +13°C° 0 mm 1 mps 718 mmHg 65%
10:00 +14°C° 0 mm 1 mps 718 mmHg 60%
11:00 +15°C° 0 mm 1 mps 717 mmHg 59%
12:00 +16°C° 0 mm 1 mps 717 mmHg 59%
13:00 +18°C° 0 mm 1 mps 717 mmHg 58%
14:00 +18°C° 0 mm 1 mps 717 mmHg 62%
15:00 +18°C° 0 mm 1 mps 717 mmHg 66%
16:00 +16°C° 0 mm 1 mps 717 mmHg 70%
17:00 +15°C° 0 mm 1 mps 717 mmHg 73%
18:00 +14°C° 0 mm 1 mps 717 mmHg 76%
19:00 +13°C° 0 mm 1 mps 718 mmHg 79%
20:00 +13°C° 0 mm 1 mps 718 mmHg 80%
21:00 +13°C° 0 mm 1 mps 718 mmHg 81%
22:00 +13°C° 0 mm 2 mps 718 mmHg 82%
23:00 +13°C° 0 mm 1 mps 718 mmHg 80%

23 Octubre, Viernes

Tiempo Temperatura Precipitaciones Viento Presión Humedad
00:00 +13°C° 0 mm 1 mps 718 mmHg 79%
01:00 +13°C° 0 mm 1 mps 718 mmHg 78%
02:00 +13°C° 0 mm 1 mps 718 mmHg 78%
03:00 +13°C° 0 mm 1 mps 718 mmHg 78%
04:00 +13°C° 0 mm 1 mps 717 mmHg 78%
05:00 +13°C° 0 mm 1 mps 717 mmHg 77%
06:00 +13°C° 0 mm 1 mps 717 mmHg 76%
07:00 +13°C° 0 mm 1 mps 717 mmHg 75%
08:00 +14°C° 0 mm 1 mps 716 mmHg 72%
09:00 +15°C° 0 mm 1 mps 716 mmHg 69%
10:00 +16°C° 0 mm 1 mps 716 mmHg 66%
11:00 +16°C° 0 mm 1 mps 716 mmHg 65%
12:00 +18°C° 0 mm 1 mps 716 mmHg 64%
13:00 +18°C° 0 mm 2 mps 715 mmHg 63%
14:00 +17°C° 0 mm 2 mps 715 mmHg 69%
15:00 +16°C° 0 mm 2 mps 715 mmHg 75%
16:00 +16°C° 0 mm 1 mps 714 mmHg 81%
17:00 +15°C° 0.6 mm 1 mps 714 mmHg 86%
18:00 +14°C° 0.6 mm 1 mps 714 mmHg 90%
19:00 +13°C° 0.6 mm 1 mps 714 mmHg 94%
20:00 +13°C° 1.2 mm 2 mps 715 mmHg 94%
21:00 +13°C° 1.2 mm 2 mps 715 mmHg 94%
22:00 +12°C° 1.2 mm 3 mps 715 mmHg 94%
23:00 +12°C° 0.4 mm 4 mps 715 mmHg 93%

24 Octubre, Sábado

Tiempo Temperatura Precipitaciones Viento Presión Humedad
00:00 +12°C° 0.4 mm 4 mps 716 mmHg 93%
01:00 +12°C° 0.4 mm 4 mps 716 mmHg 92%
02:00 +11°C° 0.4 mm 4 mps 716 mmHg 92%
03:00 +11°C° 0.4 mm 4 mps 717 mmHg 91%
04:00 +11°C° 0.4 mm 4 mps 717 mmHg 91%
05:00 +10°C° 0 mm 4 mps 717 mmHg 91%
06:00 +10°C° 0 mm 4 mps 718 mmHg 91%
07:00 +8°C° 0 mm 4 mps 718 mmHg 92%
08:00 +10°C° 0 mm 4 mps 718 mmHg 88%
09:00 +11°C° 0 mm 4 mps 719 mmHg 84%
10:00 +12°C° 0 mm 5 mps 719 mmHg 80%
11:00 +13°C° 0.1 mm 4 mps 719 mmHg 75%
12:00 +13°C° 0.1 mm 4 mps 719 mmHg 71%
13:00 +14°C° 0.1 mm 4 mps 719 mmHg 66%
14:00 +14°C° 0 mm 3 mps 719 mmHg 68%
15:00 +13°C° 0 mm 3 mps 718 mmHg 71%
16:00 +14°C° 0 mm 2 mps 718 mmHg 73%
17:00 +13°C° 0 mm 1 mps 718 mmHg 78%
18:00 +11°C° 0 mm 1 mps 718 mmHg 83%
19:00 +9°C° 0 mm 0 mps 718 mmHg 88%
20:00 +8°C° 0 mm 0 mps 718 mmHg 89%
21:00 +9°C° 0 mm 1 mps 719 mmHg 90%
22:00 +9°C° 0 mm 1 mps 719 mmHg 90%
23:00 +8°C° 0 mm 1 mps 718 mmHg 90%

25 Octubre, Domingo

Tiempo Temperatura Precipitaciones Viento Presión Humedad
00:00 +8°C° 0 mm 1 mps 718 mmHg 91%
01:00 +8°C° 0 mm 1 mps 718 mmHg 91%
02:00 +8°C° 0 mm 1 mps 717 mmHg 91%
03:00 +7°C° 0 mm 1 mps 717 mmHg 91%
04:00 +7°C° 0 mm 1 mps 716 mmHg 91%
05:00 +7°C° 0 mm 1 mps 716 mmHg 91%
06:00 +7°C° 0 mm 1 mps 716 mmHg 91%
07:00 +6°C° 0 mm 1 mps 716 mmHg 91%
08:00 +8°C° 0 mm 1 mps 716 mmHg 83%
09:00 +10°C° 0 mm 1 mps 715 mmHg 76%
10:00 +12°C° 0 mm 1 mps 715 mmHg 68%
11:00 +14°C° 0 mm 1 mps 714 mmHg 65%
12:00 +15°C° 0 mm 1 mps 714 mmHg 61%
13:00 +16°C° 0 mm 1 mps 714 mmHg 57%
14:00 +16°C° 0 mm 1 mps 713 mmHg 62%
15:00 +15°C° 0 mm 1 mps 713 mmHg 67%
16:00 +15°C° 0 mm 1 mps 712 mmHg 71%
17:00 +13°C° 0 mm 1 mps 712 mmHg 76%
18:00 +11°C° 0 mm 1 mps 712 mmHg 81%
19:00 +10°C° 0 mm 1 mps 712 mmHg 86%
20:00 +9°C° 0 mm 1 mps 712 mmHg 86%
21:00 +9°C° 0 mm 1 mps 712 mmHg 86%
22:00 +9°C° 0 mm 1 mps 712 mmHg 86%
23:00 +9°C° 0 mm 1 mps 711 mmHg 86%

26 Octubre, Lunes

Tiempo Temperatura Precipitaciones Viento Presión Humedad
00:00 +8°C° 0 mm 1 mps 711 mmHg 86%
01:00 +8°C° 0 mm 1 mps 710 mmHg 86%
02:00 +8°C° 0 mm 1 mps 710 mmHg 86%
03:00 +7°C° 0 mm 0 mps 710 mmHg 86%
04:00 +6°C° 0 mm 0 mps 709 mmHg 86%
05:00 +7°C° 0 mm 1 mps 709 mmHg 86%
06:00 +7°C° 0 mm 1 mps 709 mmHg 87%
07:00 +6°C° 0 mm 2 mps 710 mmHg 88%
08:00 +7°C° 0 mm 2 mps 710 mmHg 88%
09:00 +8°C° 0 mm 2 mps 710 mmHg 88%
10:00 +9°C° 0 mm 2 mps 710 mmHg 88%
11:00 +8°C° 0.5 mm 3 mps 710 mmHg 90%
12:00 +8°C° 0.5 mm 3 mps 710 mmHg 92%
13:00 +8°C° 0.5 mm 3 mps 710 mmHg 93%
14:00 +6°C° 0.7 mm 4 mps 710 mmHg 94%
15:00 +6°C° 0.7 mm 4 mps 710 mmHg 94%
16:00 +6°C° 0.7 mm 4 mps 710 mmHg 94%
17:00 +6°C° 0.9 mm 4 mps 711 mmHg 94%
18:00 +5°C° 0.9 mm 4 mps 712 mmHg 94%
19:00 +5°C° 0.9 mm 3 mps 712 mmHg 94%
20:00 +5°C° 0.3 mm 3 mps 713 mmHg 94%
21:00 +5°C° 0.3 mm 3 mps 713 mmHg 94%
22:00 +5°C° 0.3 mm 3 mps 714 mmHg 94%
23:00 +5°C° 0.2 mm 3 mps 714 mmHg 94%
Mostrar más

Necesitamos Su Consentimiento

Meteoprog y nuestros Proveedores de Servicios pueden almacenar y acceder a sus datos personales como cookies, identificadores de dispositivo u otras tecnologías similares de su dispositivo y procesar dichos datos para personalizar contenido y anuncios, además de ofrecer funciones de redes sociales y analizar el tráfico.

  • Almacenar y/o acceder a información en su dispositivo

    Se puede almacenar o acceder a cookies, identificadores de dispositivo u otra información de su dispositivo para los fines anteriormente indicados.

  • Anuncios y contenido personalizados, medición de anuncios y contenido, percepciones del público, y desarrollo de productos

    Los anuncios y el contenido pueden personalizarse en base a su perfil. Se pueden añadir más datos para personalizar mejor los anuncios y contenidos. Se puede medir el rendimiento de los anuncios y contenidos. Se puede obtener la percepción sobre el público que ha visto los anuncios y contenidos. Dichos datos pueden usarse para desarrollar o mejorar la experiencia del usuario, sistemas y software.

Al hacer clic en ‘Estoy De Acuerdo’ usted permitirá el uso de las cookies, identificadores de dispositivo, balizas web u otras tecnologías similares indicadas. Su configuración puede cambiarse desde el navegador de su dispositivo.

Para ciertos fines, los intereses legítimos pueden ser considerados por encima del consentimiento. Puede leer más sobre ello en nuestra Política de Privacidad y Cookies.